Torna al catalogo

COSMOS 1087

AttivoMilitareLEO
NORAD 11302·PAYLOAD·🇷🇺 Russia

Lanciato Mar 15, 1979 da Plesetsk Cosmodrome

Loading…

Prossimi Passaggi (prossime 24 ore)

TLE

AggiornatoSource: Space-Track

Epoca: Sep 14, 2026, 05:03 UTC

1 11302U 79024G   26257.21071547  .00000014  00000-0  21016-3 0  9996
2 11302  74.0346 163.6528 0036674  98.0553  56.0789 12.42879411155094

Traccia COSMOS 1087 in tempo reale con AllMySat

Download on the App Store